TimeCST,TemperatureF,Dew PointF,Humidity,Sea Level PressureIn,VisibilityMPH,Wind Direction,Wind SpeedMPH,Gust SpeedMPH,PrecipitationIn,Events,Conditions,WindDirDegrees,DateUTC
12:53 AM,54.0,41.0,62,29.98,10.0,Variable,3.5,-,N/A,,Clear,0,2013-02-11 06:53:00
1:53 AM,48.0,39.0,71,29.99,10.0,Calm,Calm,-,N/A,,Clear,0,2013-02-11 07:53:00
2:53 AM,50.0,36.0,59,30.02,10.0,NW,9.2,-,N/A,,Clear,320,2013-02-11 08:53:00
3:53 AM,48.0,37.0,66,30.06,10.0,NNW,3.5,-,N/A,,Clear,340,2013-02-11 09:53:00
4:53 AM,46.0,34.0,63,30.08,10.0,NNW,5.8,-,N/A,,Clear,330,2013-02-11 10:53:00
5:53 AM,45.0,33.1,63,30.11,10.0,North,4.6,-,N/A,,Clear,350,2013-02-11 11:53:00
6:53 AM,43.0,34.0,71,30.12,10.0,Calm,Calm,-,N/A,,Clear,0,2013-02-11 12:53:00
7:53 AM,42.1,37.0,82,30.15,10.0,Calm,Calm,-,N/A,,Clear,0,2013-02-11 13:53:00
8:53 AM,45.0,35.1,68,30.17,10.0,Calm,Calm,-,N/A,,Clear,0,2013-02-11 14:53:00
9:53 AM,46.0,32.0,58,30.19,10.0,Calm,Calm,-,N/A,,Clear,0,2013-02-11 15:53:00
10:53 AM,48.0,28.9,48,30.18,10.0,NW,4.6,-,N/A,,Clear,320,2013-02-11 16:53:00
11:53 AM,48.0,32.0,54,30.20,10.0,Calm,Calm,-,N/A,,Clear,0,2013-02-11 17:53:00
12:53 PM,51.1,32.0,48,30.17,10.0,Calm,Calm,-,N/A,,Clear,0,2013-02-11 18:53:00
1:53 PM,52.0,32.0,47,30.15,10.0,Calm,Calm,-,N/A,,Clear,0,2013-02-11 19:53:00
2:53 PM,53.1,33.1,47,30.14,10.0,NW,4.6,-,N/A,,Clear,320,2013-02-11 20:53:00
3:53 PM,53.1,30.9,43,30.13,10.0,Calm,Calm,-,N/A,,Clear,0,2013-02-11 21:53:00
4:53 PM,52.0,33.1,49,30.13,10.0,Calm,Calm,-,N/A,,Clear,0,2013-02-11 22:53:00
5:53 PM,50.0,34.0,54,30.12,10.0,Calm,Calm,-,N/A,,Clear,0,2013-02-11 23:53:00
6:53 PM,46.9,37.0,68,30.12,10.0,North,4.6,-,N/A,,Clear,10,2013-02-12 00:53:00
7:53 PM,46.0,39.0,76,30.14,10.0,Calm,Calm,-,N/A,,Clear,0,2013-02-12 01:53:00
8:53 PM,46.9,39.0,74,30.17,10.0,Calm,Calm,-,N/A,,Clear,0,2013-02-12 02:53:00
9:28 PM,46.4,41.0,81,30.15,1.8,Calm,Calm,-,N/A,,Haze,0,2013-02-12 03:28:00
9:36 PM,46.4,41.0,81,30.15,3.0,Calm,Calm,-,N/A,,Haze,0,2013-02-12 03:36:00
9:53 PM,46.9,39.0,74,30.15,2.5,Calm,Calm,-,N/A,,Haze,0,2013-02-12 03:53:00
10:01 PM,46.4,39.2,76,30.14,1.5,Calm,Calm,-,N/A,,Haze,0,2013-02-12 04:01:00
10:53 PM,48.0,39.9,74,30.15,1.0,Calm,Calm,-,N/A,,Haze,0,2013-02-12 04:53:00
10:59 PM,46.4,41.0,81,30.15,3.0,Calm,Calm,-,N/A,,Haze,0,2013-02-12 04:59:00
11:53 PM,45.0,41.0,86,30.15,10.0,Calm,Calm,-,N/A,,Clear,0,2013-02-12 05:53:00